Showing default

INMARSAT 5-F2, 40384

Orbit data source: Space-Track

INMARSAT 5-F2, 40384 is a payload satellite owned by INMARSAT-Ltd (UK) in GEO that was launched on Sun, 01 Feb 2015 UTC via a PROTON-M/BRIZ-M launch vehicle from the Tyuratam Missile And Space Complex (TTMTR). Payload-class satellites include a variety of spacecraft equipped with specific instruments for various scientific and technological missions. These include communications satellites like Starlink; space stations such as the ISS; scientific satellites like the Hubble; Earth observation satellites from companies like Planet Labs, Umbra, and HawkEye 360; GPS; miniature CubeSats for education and research; and military/defense satellites.

Loading next visibility...
Identifier
40384, 2015-005A
Orbit
GEO
Last TLE update
6 hours ago
Origin
Manufacturer
Boeing/ES
Mission
Operational Commercial Communications
Bus & Motor
BSS-702HP, R-4D
Mass
6,070 kg wet, 3,700 kg dry
Launch date (UTC)
2015-02-01 (10 years ago)
Launch vehicle
PROTON-M/BRIZ-M
Launch site
Tyuratam Missile And Space Complex (TTMTR)
Object type
Payload
Rocket body
Debris
Shape & HBR
Box + 2 Pan, 33.8 m
Radar Cross Section
53.751 m², Large (>1 m²)

Expand to show TLE details & history

TLE from 6 hours ago
0 INMARSAT 5-F2
1 40384U 15005A   25182.89281882 -.00000281  00000-0  00000+0 0  9995
2 40384   0.0188  37.1594 0000682 326.8700 182.5467  1.00272431 38160
Epoch: 2025-07-01T21:25Z
TLE epoch observation values (Epoch: 2025-07-01T21:25:39.546Z)
Latitude
0.01508°
Longitude
-55.00943°
Altitude
35,788.764 km
Speed
3.075 km/s
True Right ascension
12h 26m 20s
True Declination
0° 00' 54"
Sunlit
Object was in daylight at epoch
Visualization orbit readout
Latitude
-0.03428°
Longitude
37.17692°
Altitude
35,785.697 km
Speed
3.075 km/s
Apparent Right ascension
18h 57m 05s
Apparent Declination
-5° 57' 54"
Sunlit
Object is in daylight
Visualization observer readout
Local Sidereal Time
15:14:41
Azimuth
118.211° SE
Elevation
21.362°
Doppler factor
1
Orbital elements
Apogee altitude
35,790.36 km
Perigee altitude
35,784.609 km
Semi-major axis
42,165.621 km
Eccentricity
0.00007
Inclination
0.0188°
RAAN
37.1594°
Arg. of periapsis
326.87°
True anomaly
Unknown
Mean anomaly
182.5467°
Eccentric anomaly
Unknown
Mean motion
0.25067 °/min
Orbital period
1,436.14 mins
BSTAR
0
Loading historical data...
40384 neighbors
Loading maneuver chart data...
Loading SW <> Apogee altitude chart data...
Loading historical data...
Loading historical data...
Loading historical data...
Loading historical data...
Loading historical data...
Loading historical data...
Loading historical data...
Other satellites on launch #5 in the year 2015 (2015-02-01 UTC)

INMARSAT 5-F2 Visibility forecast

Observer location: undefined°, undefined°

Span
Click to sort rows by Start time (UTC) header in descending order
Start Az.
Max El. time (UTC)
Max El. Az.
Max El.
End time (UTC)
End Az.
1440 mins2025-07-02 03:33:25.653Z118.225° SE2025-07-02 18:21:25.653Z118.161° SE20.046°2025-07-03 03:33:25.653Z118.228° SE
|